Location: Foots Cray
(51.4000°N, 0.1167°E)
Time: 03:37:38
(UTC+00:00)

Ariane Rocket - Pass Details

Date: 15 May 2026
Orbit: 755 x 763 km, 98.4° (Epoch: 8 June)

Event Time Altitude Azimuth Distance (km) Brightness Sun altitude
Exits shadow 20:59:02 12° 146° (SE) 2,139 4.7 -9.7°
Maximum altitude 21:03:36 59° 69° (ENE) 885 3.2 -10.1°
Drops below altitude 10° 21:08:35 10° 351° (N) 2,310 6.5 -10.6°
Sets 21:10:56 0° 348° (NNW) 3,241 7.5 -10.9°
